Flag for Brazil Weather past 2 weeks in Belém, Pará, Brazil

Now
86 °F

Partly sunny.


Feels Like: 95 °F
Forecast: 75 / 87 °F
Wind: 6 mph from Southeast

Location: Belem Aeroporto

Current Time: Jul 29, 2015 at 1:28:26 PM

Latest Report: Jul 29, 2015 at 1:00 PM


Visibility: N/A

Pressure: 29.92 "Hg

Humidity: 70%

Dew point: 75 °F

Location of BelémLocation

Historic Weather in Belém — Graph

°F

Belém temperature yesterday

Maximum temperature yesterday: 90 °F (at 2:00 PM)
Minimum temperature yesterday: 75 °F (at 1:00 AM)
Average temperature yesterday: 81 °F

Past Weeks' High & Low Weather Summary

 TemperatureHumidityPressure
High90 °F (Jul 14, 1:00 PM)100% (Jul 24, 4:00 AM)30.01 "Hg (Jul 24, 4:00 AM)
Low73 °F (Jul 22, 6:00 AM)49% (Jul 16, 2:00 PM)29.83 "Hg (Jul 14, 3:00 PM)
Average80 °F81%29.91 "Hg
* Reported Jul 14 12:00 Noon — Jul 29 12:00 Noon, Belém, Weather by CustomWeather, © 2015

Note: Actual official high and low records may vary slightly from our data, if they occured in-between our weather recording intervals... More about our weather records

Advertising

Belém weather history for previous 24 hours

 ConditionsComfort  
Time TempWeatherWind HumidityBarometerVisibility
12:00 PM
Wed, Jul 29
86 °FPartly sunny.10 mph66%29.95 "HgN/A
11:00 AM84 °FPartly sunny.12 mph74%29.95 "HgN/A
10:00 AM82 °FScattered clouds.12 mph79%29.95 "HgN/A
9:00 AM81 °FScattered clouds.12 mph84%29.95 "HgN/A
8:00 AM77 °FSunny.9 mph89%29.95 "Hg10 mi
7:00 AM75 °FSunny.5 mph94%29.92 "Hg10 mi
6:00 AM73 °FClear.5 mph94%29.89 "Hg10 mi
5:00 AM75 °FClear.5 mph89%29.89 "Hg10 mi
4:00 AM73 °FClear.5 mph94%29.86 "Hg10 mi
3:00 AM75 °FClear.5 mph89%29.89 "Hg10 mi
2:00 AM75 °FClear.2 mph89%29.89 "Hg10 mi
1:00 AM75 °FPassing clouds.3 mph94%29.92 "HgN/A
12:00 AM75 °FPassing clouds.5 mph94%29.92 "HgN/A
11:00 PM
Tue, Jul 28
77 °FPartly cloudy.2 mph89%29.92 "HgN/A
10:00 PMN/AThundershowers.6 mphN/AN/AN/A
9:00 PM79 °FLight rain. Passing clouds.13 mph84%29.89 "HgN/A
8:00 PM82 °FPassing clouds.6 mph79%29.86 "HgN/A
7:00 PM82 °FPassing clouds.7 mph79%29.86 "HgN/A
6:00 PM84 °FPassing clouds.8 mph74%29.86 "HgN/A
5:00 PM86 °FScattered clouds.8 mph75%29.83 "HgN/A
4:00 PM90 °FScattered clouds.7 mph52%29.83 "HgN/A
3:00 PM90 °FScattered clouds.8 mph55%29.86 "HgN/A
2:00 PM90 °FPartly sunny.8 mph55%29.86 "HgN/A
1:00 PM88 °FPartly sunny.7 mph62%29.92 "HgN/A
Weather by CustomWeather, © 2015

See weather overviewHow to use our weather pages